Regional Weather Roundup
Issued by NWS

Home | Current Version | Previous Version | Text Only | Print | Product List | Glossary Off
Versions: 1 2 3 4 5 6 7 8 9 10 11 12 13 14 15 16 17 18 19 20 21 22 23 24 25 26 27 28 29 30 31 32 33 34 35 36 37 38 39 40 41 42 43 44 45 46 47 48 49 50

700
ASUS43 KFSD 241502
RWRSD

WEATHER ROUNDUP FOR SOUTH DAKOTA
NATIONAL WEATHER SERVICE SIOUX FALLS SD
1000 AM CDT SAT JUN 24 2017

NOTE: "FAIR" INDICATES FEW OR NO CLOUDS BELOW 12,000 FEET WITH NO
SIGNIFICANT WEATHER AND/OR OBSTRUCTIONS TO VISIBILITY.


SDZ001>005-009-010-012>017-241600-
NORTHWEST AND NORTH CENTRAL SOUTH DAKOTA

CITY           SKY/WX    TMP DP  RH WIND       PRES   REMARKS
BUFFALO          N/A     60  35  39 N16       30.21R
FAITH            N/A     59  38  45 NW12      30.23R
MOBRIDGE       SUNNY     61  36  39 NW21      30.14S
$$

SDZ012>016-024>037-041>051-057-063-072>074-241600-
SOUTHWEST AND SOUTH CENTRAL SOUTH DAKOTA

CITY           SKY/WX    TMP DP  RH WIND       PRES   REMARKS
RAPID CTY ARPT SUNNY     68  31  25 N18G24    30.27R
PIERRE         SUNNY     62  39  42 NW18      30.19R
CUSTER         CLOUDY    52  30  43 VRB5      30.34R
PHILIP         SUNNY     70  32  24 NW16G26   30.22S
PINE RIDGE     CLOUDY    61  41  47 W5        30.29S
SPEARFISH      FAIR      63  34  34 NW13G20   30.31S
WINNER         FAIR      70  34  26 NW16G23   30.20R
$$

SDZ004>011-016>023-039-040-241600-
NORTHEAST SOUTH DAKOTA

CITY           SKY/WX    TMP DP  RH WIND       PRES   REMARKS
ABERDEEN       MOSUNNY   59  41  51 NW20G26   30.12R
WATERTOWN      CLOUDY    55  42  61 W8        30.07S
BROOKINGS      MOSUNNY   63  41  44 W23       30.07F
SISSETON         N/A     59  45  59 NW20      30.05S
$$

SDZ017-020-022-023-036>040-048>070-241600-
SOUTHEAST SOUTH DAKOTA

CITY           SKY/WX    TMP DP  RH WIND       PRES   REMARKS
SIOUX FALLS    MOSUNNY   64  46  52 W10G18    30.11F
HURON          PTSUNNY   61  43  51 NW21      30.12R
CHAMBERLAIN    SUNNY     69  38  32 W16G24    30.17S
MITCHELL       SUNNY     68  38  33 W21G28    30.13S
YANKTON        SUNNY     67  40  37 W20       30.14F
$$

ABBREVIATIONS USED IN REMARKS
   TC - TEMPERATURE IN CELSIUS
  WCI - WIND CHILL INDEX
   HX - HEAT INDEX
  VSB - VISIBILITY





USA.gov is the U.S. government's official web portal to all federal, state and local government web resources and services.